GFSSE_2pvu_pres_000.txt.gz
Presure
145 162 121 145 134 138 147 145 147 135 145 151 133 151 151 153 154 155 154 157 155 157 155 145 158 168 163 164 154 151 153 154 166 156 166 164 162 152 170 169 136 112 92
159 93 133 152 134 145 113 159 152 142 126 151 145 158 155 152 148 153 153 111 155 147 144 153 152 158 157 153 164 160 157 158 151 154 151 153 164 166 173 165 160 90 164
135 103 89 90 99 116 140 146 160 166 151 145 154 149 137 124 96 147 99 100 161 145 143 144 165 170 152 155 166 168 139 159 113 151 144 161 126 127 181 199 84 92 145
147 160 96 149 103 151 124 141 162 135 170 153 148 154 159 119 148 149 152 146 150 149 154 165 164 166 151 160 167 152 159 135 136 125 139 149 137 166 172 122 106 186 227
158 144 96 156 152 132 103 134 142 143 146 155 177 164 163 165 138 137 142 151 150 144 155 165 162 151 159 170 150 155 158 150 138 169 171 172 182 220 232 123 196 168 128
146 134 146 121 129 123 139 122 129 136 91 136 149 134 92 96 109 145 149 160 154 157 170 167 178 146 146 143 152 155 192 188 186 173 172 174 189 234 223 220 127 133 133
126 124 141 139 158 150 160 172 180 171 133 168 144 122 107 146 150 96 107 138 149 129 178 178 141 148 148 144 154 192 189 167 172 162 172 130 210 140 144 88 182 178 126
96 98 160 99 112 104 137 170 173 177 172 167 179 132 168 182 93 89 186 125 164 127 165 183 133 145 145 151 129 241 181 170 172 168 181 251 239 190 194 209 134 151 194
95 97 165 104 108 117 144 124 165 132 183 170 167 130 145 202 180 161 155 187 124 109 172 173 144 198 101 102 102 150 162 173 172 173 255 239 232 152 143 203 103 140 202
71 156 102 94 125 95 150 166 137 117 141 189 137 173 142 159 145 183 201 151 104 108 134 172 246 244 188 104 104 110 123 131 174 258 249 237 226 215 203 88 83 135 200
102 99 122 95 83 92 98 170 164 128 130 168 174 181 135 187 159 182 208 164 146 132 262 195 247 156 210 216 168 171 166 170 267 260 240 224 210 93 137 87 87 131 198
96 118 84 84 93 91 90 91 96 92 92 96 126 112 181 172 185 169 200 211 178 221 234 239 236 150 169 152 164 168 160 163 194 254 236 221 90 89 91 95 95 101 204
115 173 84 92 87 88 100 83 91 90 93 91 86 86 185 152 84 84 84 168 264 214 238 144 219 145 141 167 175 149 169 171 163 192 209 88 155 138 103 209 196 103 201
93 187 180 87 93 89 125 90 78 87 85 82 151 174 94 140 102 100 215 160 232 239 142 183 140 139 158 167 152 160 208 168 232 168 165 171 165 102 138 100 152 182 184
90 110 128 86 91 88 89 77 90 94 119 80 119 95 98 94 119 94 107 105 110 129 127 135 203 155 160 177 177 161 175 196 165 164 135 139 131 137 97 159 154 161 164
108 136 114 87 90 90 89 94 81 87 93 85 98 91 192 112 106 225 170 124 118 118 119 120 126 151 178 185 179 175 170 175 172 162 120 147 170 157 106 151 160 168 164
105 193 194 192 112 87 91 91 84 104 96 119 93 109 94 90 101 211 235 222 214 206 152 197 200 128 131 136 185 178 173 170 169 152 110 121 167 95 100 172 110 149 170
97 103 108 107 164 86 125 115 112 100 181 117 149 201 96 97 140 234 196 215 207 193 204 205 195 200 189 161 190 185 144 141 127 137 113 149 156 97 182 179 168 162 160
107 143 102 190 147 138 149 175 164 141 100 93 84 118 214 85 222 226 197 196 206 201 144 172 196 186 174 181 180 189 149 140 130 110 110 102 169 170 161 159 161 158 167
109 119 125 125 183 124 189 174 95 79 115 97 216 104 203 224 223 214 208 197 180 196 165 193 193 192 185 185 180 171 167 208 177 128 196 199 198 193 187 195 181 158 178
109 105 113 116 123 108 93 90 79 97 104 215 193 183 225 222 217 207 202 204 209 208 205 204 204 203 202 205 204 210 207 206 206 208 207 205 205 205 208 206 210 202 198
91 104 93 123 82 121 83 96 85 109 210 183 183 194 201 197 207 211 199 196 194 193 194 194 193 192 191 192 192 192 192 193 185 185 187 187 190 188 186 186 187 183 183
88 105 234 123 110 171 169 207 156 196 197 183 193 188 189 191 182 185 185 185 186 186 186 184 181 181 188 188 182 178 158 179 174 196 175 191 202 180 195 183 194 197 157
217 192 126 114 125 120 129 105 106 134 178 148 187 186 180 182 185 184 183 131 180 178 175 171 182 183 190 179 181 176 178 195 174 183 187 178 185 183 188 188 193 192 200
213 220 204 106 105 104 202 101 198 165 191 189 184 176 178 180 179 180 177 170 163 182 167 181 177 176 180 179 185 185 191 197 197 167 179 183 181 180 184 193 198 202 237
211 193 110 115 115 141 191 192 183 192 190 184 182 177 177 139 179 177 172 166 172 171 182 175 185 177 190 172 185 172 174 184 189 191 195 179 177 189 189 193 198 222 256

GFSSE_2pvu_pres_003.txt.gz
Presure
133 104 103 167 157 158 131 115 150 137 143 142 142 145 147 152 151 153 155 154 153 155 158 152 155 161 149 166 161 162 162 159 168 131 157 157 157 153 161 151 137 164 148
136 132 135 142 158 161 162 138 143 139 153 153 147 148 155 152 144 154 160 96 94 90 154 150 160 141 145 153 157 151 159 163 168 153 145 105 95 161 163 157 103 101 131
126 134 97 88 90 166 167 161 147 154 145 139 145 164 154 151 153 160 154 150 162 149 163 154 168 110 124 154 153 167 161 157 176 114 173 162 161 166 154 155 106 113 163
145 124 111 112 125 147 141 162 167 156 154 141 161 148 170 168 154 154 131 157 156 140 153 144 146 143 150 155 135 134 161 160 165 169 158 156 133 163 161 163 160 164 157
148 147 147 127 134 144 144 171 144 158 134 154 120 106 148 143 167 151 172 90 155 162 153 144 162 155 153 177 169 165 76 168 166 153 155 158 159 157 175 172 169 120 175
105 148 142 137 152 142 142 143 139 143 119 155 134 165 137 170 84 87 104 161 155 100 167 163 178 196 116 81 87 200 150 86 151 158 162 162 192 188 173 169 170 120 128
99 122 137 143 115 146 96 136 131 128 150 137 150 173 139 146 183 136 174 95 95 157 153 134 140 148 136 181 134 145 149 139 156 214 182 177 229 177 172 169 176 132 117
88 95 185 133 101 111 133 139 134 153 130 157 166 154 161 156 158 178 132 189 131 136 141 163 124 117 142 145 184 98 166 100 102 144 243 181 195 176 176 178 183 241 228
80 94 132 116 103 157 132 103 104 156 149 168 184 185 122 178 167 152 134 160 132 174 185 130 108 114 137 155 145 263 167 104 105 109 236 122 173 172 179 186 247 231 83
81 86 99 104 98 97 93 143 113 103 127 108 150 106 102 138 156 148 147 140 186 193 146 157 119 136 164 229 259 250 246 177 151 228 228 153 161 162 263 250 248 175 87
88 73 77 178 143 94 92 90 118 90 88 147 90 91 91 95 150 165 131 82 79 82 155 207 196 161 231 224 214 239 146 202 169 168 190 165 165 163 162 255 95 218 96
86 97 93 127 84 88 89 88 92 89 88 88 90 90 87 84 94 98 85 86 90 89 147 97 236 226 234 235 231 148 151 147 184 172 152 163 169 173 148 125 173 231 116
80 87 95 122 121 85 83 89 85 86 83 84 83 87 82 97 187 94 82 94 85 190 114 115 253 125 214 146 144 138 144 153 178 188 152 162 183 168 155 164 171 173 161
96 98 93 93 107 93 82 84 89 88 77 87 86 94 78 101 91 92 190 90 98 192 208 224 247 125 210 119 123 125 131 155 159 178 180 159 168 202 168 160 137 118 103
122 144 198 90 131 84 150 88 110 84 110 86 82 83 192 133 87 138 95 135 94 99 213 237 227 218 212 161 130 150 150 147 135 182 183 179 178 173 174 153 110 135 141
190 80 127 90 143 110 151 113 89 90 85 92 93 101 85 84 85 184 173 90 214 227 216 229 224 142 189 176 151 160 189 202 172 156 158 180 143 146 174 171 127 110 99
122 113 76 122 111 169 181 182 117 110 87 100 113 111 91 100 80 101 101 90 224 230 223 226 217 214 140 201 151 167 196 191 139 188 193 195 183 180 142 141 142 102 98
99 126 117 98 103 109 188 131 185 107 111 187 183 153 89 93 102 172 188 133 203 193 222 217 217 141 195 197 160 186 144 199 189 176 180 181 183 180 195 116 103 114 168
179 111 113 94 95 102 106 107 161 147 146 190 122 86 96 90 143 192 211 228 223 220 215 206 204 206 210 206 205 173 206 203 205 212 165 215 211 210 179 201 210 210 210
158 96 92 90 112 114 143 139 129 120 124 108 76 100 97 105 177 206 194 200 217 218 206 204 204 198 196 196 196 194 192 193 195 196 194 193 194 191 189 184 185 187 185
104 104 116 88 118 114 116 104 116 82 83 160 163 220 113 110 182 187 198 192 189 194 190 185 190 183 182 194 189 189 185 183 184 191 189 187 187 183 191 178 183 189 181
121 113 110 114 105 108 88 110 111 124 93 118 208 180 96 111 174 191 173 193 192 183 182 181 178 180 183 180 182 175 186 176 170 182 171 174 177 176 177 178 171 189 188
113 125 115 91 93 78 108 111 116 121 211 115 103 95 111 130 188 176 187 186 133 184 144 146 185 179 181 181 176 170 179 177 175 170 188 179 190 175 179 180 186 185 195
162 114 88 91 113 109 114 90 111 183 123 103 95 111 163 194 162 183 189 180 179 180 147 173 183 172 167 167 178 187 158 182 168 180 180 186 174 167 182 187 183 185 191
179 116 113 157 116 114 114 151 110 205 120 112 113 190 195 179 191 193 180 182 177 179 171 180 178 169 177 183 178 181 174 164 162 170 151 176 187 179 184 179 178 192 215
124 174 135 114 107 109 110 134 150 197 199 115 116 193 179 199 185 188 181 175 182 170 178 187 184 175 186 173 181 171 182 182 186 183 172 170 162 150 168 228 212 207 226

GFSSE_2pvu_pres_006.txt.gz
Presure
122 141 133 105 102 151 107 131 122 162 127 148 134 134 143 133 148 145 143 148 156 155 156 157 158 157 156 158 156 154 159 158 160 167 164 165 167 158 169 159 121 161 162
101 104 147 127 115 141 136 143 141 160 156 147 135 159 137 153 149 136 145 143 143 142 151 154 155 136 151 155 149 140 121 157 118 115 152 127 170 103 104 103 112 177 151
92 124 124 93 131 119 119 141 148 146 164 152 177 150 152 148 142 162 160 148 152 94 105 157 161 159 158 157 158 169 158 149 113 127 164 162 167 159 162 167 168 153 158
123 108 119 142 136 121 110 131 145 134 143 158 132 170 150 145 144 83 133 158 122 167 90 157 155 159 147 162 120 148 151 156 116 160 183 173 163 163 190 155 152 154 131
131 97 133 108 138 119 131 136 135 153 138 138 124 120 83 121 129 162 143 89 91 149 172 142 150 154 139 146 162 154 165 149 155 179 168 185 150 147 160 156 164 161 165
94 105 146 137 143 125 146 127 127 159 163 135 135 135 141 147 153 157 169 169 151 191 156 95 189 167 145 158 154 126 132 165 150 134 161 99 150 154 160 158 155 201 181
97 102 136 102 150 151 132 140 143 135 165 145 136 143 109 125 128 171 185 180 151 184 162 104 129 143 106 124 110 158 150 137 127 131 255 114 102 228 219 250 241 206 236
96 95 95 104 114 103 94 114 153 157 167 160 108 153 128 146 178 154 119 179 159 141 158 174 173 135 188 193 114 170 152 134 138 150 236 146 212 110 183 139 124 168 209
96 89 88 126 116 97 147 174 102 134 167 99 149 129 167 172 152 176 132 159 172 161 106 98 134 144 159 202 123 129 122 151 149 248 252 245 169 237 238 228 161 182 155
98 84 92 95 126 144 163 89 95 129 97 96 163 90 90 89 181 85 92 87 82 83 142 145 91 128 90 165 204 241 167 241 239 214 236 159 149 228 199 216 207 162 167
97 80 121 119 119 109 176 93 88 89 100 87 85 89 89 87 87 86 94 108 89 87 90 84 203 83 217 192 149 206 250 238 234 220 195 145 144 209 191 153 155 169 168
97 88 81 85 126 89 98 124 81 85 97 87 84 84 86 83 84 87 95 110 88 173 144 86 97 191 186 202 234 186 194 227 119 194 133 138 203 189 181 181 155 161 89
90 92 115 78 92 91 92 86 87 91 83 89 76 86 80 98 92 78 95 180 172 184 93 90 96 165 207 226 235 234 209 178 134 116 113 124 192 158 156 169 179 176 161
199 93 84 85 86 94 80 79 84 85 91 89 80 83 88 88 86 169 123 78 84 195 186 83 112 111 218 220 232 225 218 219 196 206 159 202 133 154 156 146 188 181 181
89 85 77 99 94 101 89 138 123 150 85 104 135 81 83 85 89 99 85 89 79 93 97 122 182 191 238 231 229 214 195 203 157 151 177 154 186 202 185 198 162 191 181
114 112 101 103 79 88 199 118 96 102 108 107 86 86 86 85 95 110 87 105 107 84 184 97 189 235 217 233 221 217 215 206 206 204 176 173 144 167 160 193 176 200 194
200 104 110 135 83 168 186 167 82 119 133 181 182 88 158 141 183 78 109 94 85 105 187 193 205 237 231 222 214 217 218 220 209 205 209 157 203 203 205 214 215 214 216
193 73 122 129 127 88 194 169 121 122 126 187 131 109 182 107 168 170 83 92 99 109 144 196 197 222 222 206 215 208 202 200 197 195 195 194 195 196 197 202 198 194 195
143 94 76 75 128 129 125 117 99 102 105 103 103 148 104 113 107 99 111 119 108 109 142 205 203 180 207 197 183 191 188 189 185 185 185 184 184 183 185 187 186 183 182
100 102 109 103 122 197 97 119 97 101 109 205 109 144 105 82 117 197 181 117 108 110 109 194 194 113 191 192 187 191 190 192 191 189 190 181 186 183 182 184 194 189 181
96 165 185 115 98 197 89 96 110 120 122 114 111 110 117 140 93 115 103 186 106 110 111 190 186 187 192 191 187 172 185 182 180 183 191 188 185 184 183 185 192 182 197
193 129 124 109 110 99 106 90 120 119 110 97 86 91 111 113 108 98 102 109 111 140 192 200 176 193 173 185 178 170 175 188 181 169 178 175 173 188 191 182 185 183 191
94 141 99 104 78 115 117 113 110 106 81 89 112 96 111 109 110 221 110 109 111 193 187 161 179 190 176 181 178 185 183 181 182 178 185 188 179 181 178 190 200 205 203
201 197 135 117 170 171 108 108 104 84 114 114 109 112 104 171 126 111 194 112 164 194 180 182 190 182 182 181 183 181 186 183 169 163 174 178 176 189 193 190 190 200 185
163 202 196 191 92 182 179 125 114 114 108 108 109 108 108 123 210 213 199 192 193 180 190 188 188 186 181 188 183 182 181 180 173 175 164 151 180 170 174 282 260 249 235
247 224 204 194 190 186 183 172 178 110 114 110 111 109 162 209 204 198 196 182 184 180 191 185 192 180 182 184 175 181 181 180 178 175 178 191 184 203 272 233 230 229 234

GFSSE_2pvu_pres_009.txt.gz
Presure
117 141 125 128 125 131 126 132 131 160 117 137 146 159 147 133 140 144 123 118 151 145 145 144 121 152 154 122 155 139 128 116 119 160 139 159 162 162 156 156 151 160 169
131 131 134 120 133 141 129 123 130 134 136 147 144 120 168 138 155 156 140 153 152 150 143 146 140 143 148 154 154 147 149 141 160 152 154 159 160 159 155 154 162 164 172
131 132 122 95 119 132 138 128 130 136 139 135 148 117 143 147 160 167 119 143 135 104 156 162 160 170 167 163 166 160 164 153 171 174 144 158 164 158 153 154 159 161 168
119 99 97 108 104 136 102 135 131 124 129 133 148 151 144 140 84 161 132 170 166 130 131 142 149 122 124 157 141 168 178 152 147 195 144 151 161 156 173 166 175 169 161
90 83 125 138 118 145 131 158 136 124 133 119 142 122 145 144 140 125 138 132 150 140 144 155 133 150 152 190 187 153 180 145 156 159 163 173 117 96 161 204 140 173 150
107 96 145 137 147 143 105 138 142 131 136 120 136 137 120 149 134 141 142 140 124 119 152 121 137 191 192 132 173 125 147 149 109 106 127 205 133 137 243 231 138 159 147
89 96 137 119 136 148 132 141 136 101 158 158 137 152 161 153 144 144 142 135 145 161 171 159 170 129 182 152 104 126 137 217 120 118 220 248 121 137 152 160 182 160 173
95 102 100 128 120 106 123 141 118 133 138 143 147 131 110 161 141 168 139 130 153 183 148 83 82 141 161 163 182 155 142 144 166 150 257 152 142 207 147 198 240 241 196
88 94 133 89 96 111 121 87 100 103 154 111 97 128 173 91 153 144 133 142 167 82 87 90 164 105 143 167 130 125 125 134 200 241 260 249 149 171 230 220 222 149 208
88 96 90 97 79 143 89 101 146 151 96 148 154 151 91 91 90 88 90 92 93 93 100 123 92 162 89 94 90 192 150 195 209 254 239 229 231 221 215 220 221 146 149
166 98 89 86 96 104 137 167 112 87 94 90 89 89 88 87 87 85 85 142 95 172 85 87 94 85 83 83 172 144 205 197 217 244 230 220 214 146 216 140 127 148 192
108 96 91 82 89 120 95 121 93 81 82 92 141 88 83 86 82 92 173 137 94 92 126 157 170 181 143 149 96 204 197 204 217 234 224 220 215 200 123 120 119 123 144
214 90 94 90 87 90 190 107 89 90 101 91 88 90 81 86 147 89 87 94 115 99 103 91 109 112 96 93 189 182 206 245 212 231 219 217 207 203 173 151 196 158 169
93 123 97 90 78 79 93 90 92 78 84 87 149 180 83 82 89 80 85 89 89 97 79 87 100 83 132 194 196 143 200 235 236 225 220 212 204 208 209 141 151 153 151
89 99 234 81 90 109 92 95 78 109 76 113 192 85 85 112 81 84 85 92 97 137 154 94 82 86 105 189 179 202 210 235 217 224 218 216 212 211 208 204 180 179 202
147 81 96 100 82 85 95 100 88 96 91 85 125 189 142 87 88 103 84 107 115 124 83 102 91 106 105 111 141 196 214 214 218 221 214 210 208 206 204 202 199 197 197
108 94 205 91 82 95 100 99 91 201 201 90 84 204 131 133 191 80 83 192 183 106 84 100 169 106 105 182 205 131 217 213 207 202 192 181 193 194 193 191 191 199 192
199 194 110 192 130 97 109 105 115 215 135 130 177 125 123 124 103 105 111 155 116 85 114 174 181 110 133 110 111 142 186 180 193 163 121 191 189 180 182 183 184 183 184
226 145 132 175 172 203 152 151 115 142 128 130 204 123 95 89 107 123 132 107 79 115 106 117 102 103 109 110 208 198 195 180 192 192 182 189 183 183 189 191 190 194 181
237 232 200 189 115 188 192 125 184 125 132 132 82 100 104 110 116 110 109 108 83 116 104 103 161 104 109 111 207 194 178 184 195 186 189 181 179 184 190 193 186 178 187
237 243 238 194 192 170 121 123 157 126 127 155 128 123 117 123 96 99 78 112 111 100 104 124 109 209 112 114 203 191 191 177 193 182 181 189 173 189 188 193 183 185 190
236 235 88 97 85 103 105 180 105 101 114 193 133 114 124 104 95 88 110 110 107 113 105 131 156 217 178 204 192 183 192 178 193 182 188 191 184 171 186 184 187 181 182
237 233 91 258 156 143 146 103 109 147 103 111 152 93 114 93 98 114 100 103 106 112 110 170 175 207 204 187 186 180 188 181 190 192 187 188 180 183 182 184 180 179 182
268 234 226 238 232 127 112 190 176 161 108 151 108 112 88 121 114 112 109 109 111 108 111 214 204 201 193 191 182 182 191 184 190 178 186 174 192 188 184 181 184 186 176
265 272 232 224 247 228 133 195 189 195 168 128 184 192 169 187 104 109 118 209 112 210 209 206 195 194 183 189 181 190 189 190 189 175 178 181 186 187 176 184 181 174 193
263 262 270 226 230 240 147 204 148 143 178 119 167 178 186 182 186 198 169 211 212 201 204 196 197 192 187 193 190 194 195 195 181 185 190 187 176 164 162 167 186 194 188

GFSSE_2pvu_pres_012.txt.gz
Presure
134 140 132 116 136 135 117 134 131 138 129 134 138 140 135 140 145 119 144 134 160 153 134 156 152 124 145 149 118 147 148 153 152 154 146 139 160 160 143 161 164 163 164
135 131 141 132 133 134 131 137 134 124 133 140 138 119 132 144 142 133 143 149 165 137 178 154 158 141 149 157 163 158 148 145 153 86 116 155 153 151 167 155 160 169 166
149 139 137 128 134 142 129 132 92 142 131 128 116 140 136 140 145 153 142 124 160 90 167 125 170 172 156 161 112 156 156 158 163 160 160 155 180 144 154 174 184 153 153
112 156 136 104 90 88 91 102 113 142 141 134 133 141 143 140 127 104 118 100 145 136 154 117 131 160 140 120 108 144 160 152 111 159 181 175 183 180 158 106 96 121 175
139 149 106 87 109 110 142 104 128 118 142 140 139 156 132 107 136 139 165 148 142 134 139 138 138 137 143 149 177 167 186 127 184 140 128 185 190 114 134 166 279 156 135
117 134 156 149 106 111 135 126 128 134 134 139 144 143 141 120 136 141 129 152 162 161 124 168 139 168 143 172 160 86 186 170 169 172 187 195 191 216 149 155 289 122 124
117 93 106 138 119 123 154 145 102 148 150 125 107 143 135 152 131 136 148 161 153 150 144 179 146 116 168 170 176 177 145 159 159 163 154 142 147 140 150 191 251 186 165
140 157 109 110 159 135 163 160 129 107 136 150 138 148 151 127 152 158 112 140 151 111 115 84 88 90 135 89 143 78 108 111 117 126 117 179 171 209 239 244 237 238 150
149 129 99 97 136 124 154 124 153 157 150 111 117 128 130 144 99 137 141 153 104 95 89 94 100 93 128 88 85 87 85 117 164 179 190 206 204 205 236 144 228 224 216
166 94 91 99 176 88 150 114 128 129 130 99 97 136 110 141 133 91 89 92 94 94 116 95 140 92 130 94 95 160 169 98 95 160 202 196 208 235 222 226 217 214 199
133 89 92 159 96 95 81 107 156 99 123 119 97 99 92 129 90 89 88 88 95 84 172 156 86 84 92 144 175 179 117 95 158 198 196 202 219 227 228 225 223 210 209
94 91 91 236 93 113 133 101 156 166 162 120 89 89 88 87 83 86 82 92 93 178 166 164 105 99 88 90 83 100 182 190 193 186 198 181 212 242 226 218 216 212 206
207 214 112 100 94 92 141 158 85 122 96 90 87 93 94 87 87 82 105 91 84 87 90 95 93 90 97 88 84 93 103 116 186 188 190 200 242 228 224 219 211 207 206
205 205 97 185 99 196 78 98 91 92 89 95 88 92 95 93 88 87 112 92 82 84 85 95 83 120 186 87 90 111 104 108 109 110 194 200 229 222 220 216 215 212 209
191 198 206 169 102 97 84 89 99 92 178 84 106 106 88 162 87 85 84 83 150 79 81 94 188 184 150 150 93 174 100 108 188 185 111 210 221 200 216 213 208 208 207
130 184 192 149 97 97 89 93 92 88 94 86 88 103 132 90 97 125 195 193 101 84 132 172 196 99 121 92 149 188 177 143 109 111 182 205 198 189 190 189 193 194 184
161 100 188 89 104 98 88 86 95 84 93 90 89 92 223 159 83 101 129 134 134 121 110 111 180 119 94 108 109 105 95 107 108 111 152 206 197 187 176 191 189 179 185
227 221 116 114 97 82 90 96 86 85 90 100 98 92 109 207 163 132 108 120 110 77 101 123 118 83 110 109 105 102 127 165 199 122 115 204 201 179 182 193 189 187 190
188 227 230 242 146 111 100 194 82 100 98 84 102 114 125 224 244 130 128 115 105 113 122 114 104 110 112 106 115 116 132 129 191 207 208 198 195 173 181 185 193 174 182
213 221 226 246 239 236 201 95 102 151 185 110 121 113 123 211 99 84 125 110 113 117 100 88 106 108 100 107 103 109 127 127 208 214 205 195 192 182 182 180 194 185 184
150 90 222 228 241 217 90 78 207 191 175 121 198 186 194 125 127 130 147 160 115 124 95 87 94 112 106 107 104 109 153 189 213 203 200 193 183 184 191 185 190 195 184
209 201 121 80 175 241 83 124 222 97 196 81 184 191 96 176 124 126 177 147 117 115 84 87 192 104 108 108 110 115 206 210 203 203 191 198 182 186 183 186 194 191 178
237 224 209 226 238 90 168 243 236 96 109 146 173 125 111 109 102 110 117 146 118 90 90 194 114 110 114 131 168 205 208 204 199 193 186 193 183 137 191 193 200 181 186
235 237 201 211 212 245 250 173 194 241 206 103 131 107 104 103 107 101 195 114 95 113 106 112 107 228 213 193 201 205 206 198 201 192 190 193 199 199 200 189 184 191 195
227 243 236 232 214 249 246 241 228 217 246 225 220 204 108 174 178 178 185 122 190 172 193 196 214 212 211 211 200 203 201 198 195 192 185 190 196 179 181 189 194 196 189
175 232 236 243 222 272 255 237 236 132 242 235 221 220 175 180 139 182 186 143 180 177 178 195 205 204 194 204 198 194 198 197 195 193 189 186 175 180 187 191 183 183 182

GFSSE_2pvu_pres_015.txt.gz
Presure
108 131 133 118 115 137 132 133 135 133 134 131 137 138 129 128 135 129 131 141 125 133 124 149 170 136 157 167 97 156 137 148 156 162 145 143 145 149 153 156 158 157 163
118 134 133 132 130 133 126 131 134 134 134 139 139 132 132 142 139 132 125 142 143 129 143 145 149 150 124 159 160 169 169 167 162 156 161 158 157 157 85 148 167 155 153
124 112 138 139 139 130 135 136 125 136 140 130 122 129 135 136 112 150 121 142 135 126 144 146 139 99 162 88 98 113 159 137 163 164 144 151 156 184 182 179 166 172 200
143 135 127 126 141 133 139 135 139 138 138 136 141 141 129 120 122 135 141 140 126 88 123 147 121 90 144 134 144 140 117 153 141 154 134 163 122 119 170 174 191 111 168
137 169 131 133 135 141 138 84 104 113 105 114 137 147 147 132 133 135 92 122 150 127 136 143 148 117 134 147 140 144 145 147 140 157 184 138 124 174 170 165 191 163 169
119 98 137 124 137 89 88 90 125 149 124 127 132 155 142 147 92 140 144 135 138 145 135 148 165 145 152 140 121 131 172 106 163 171 136 161 145 180 144 147 140 139 212
160 112 101 108 130 106 167 108 141 135 145 128 135 127 141 143 141 139 147 145 150 132 138 154 153 152 110 90 144 182 102 80 121 92 99 166 157 167 181 143 206 198 152
131 104 97 98 147 137 96 125 125 145 122 119 145 148 138 152 141 139 150 154 157 156 149 142 102 83 88 101 113 89 89 108 89 125 96 173 180 146 183 155 204 198 213
165 92 103 127 99 168 161 138 132 134 134 141 129 169 162 145 123 128 119 124 143 149 151 88 92 100 110 91 126 108 125 151 180 179 94 179 179 183 187 199 198 197 225
134 156 98 122 123 102 129 147 147 160 105 148 155 120 133 101 122 113 95 98 94 92 97 99 112 102 83 83 84 85 82 95 176 187 183 142 183 183 198 202 193 200 234
141 137 94 104 132 102 104 106 128 138 95 155 108 117 156 104 118 103 116 89 86 90 93 87 115 85 94 130 111 115 85 85 91 98 116 167 190 192 196 154 189 204 234
154 161 138 102 141 153 107 93 177 89 154 105 103 101 108 114 96 92 88 87 80 88 91 85 113 116 98 84 101 88 95 88 92 95 140 103 187 144 143 189 199 213 227
243 211 96 103 89 101 101 93 83 107 95 100 135 147 111 98 92 90 90 84 80 92 80 85 103 90 89 91 96 110 185 151 94 92 172 100 105 191 136 194 200 215 213
225 226 223 218 219 93 103 96 102 92 178 106 147 100 126 94 96 89 92 90 90 87 80 84 82 80 85 92 177 130 189 92 107 126 145 191 102 107 109 109 120 209 207
215 195 97 200 101 101 102 104 123 106 199 101 132 99 92 83 93 89 87 94 96 159 175 197 160 116 92 142 118 191 82 131 117 109 105 94 101 141 156 110 136 203 200
191 198 193 192 189 158 139 163 94 103 97 82 97 101 90 94 87 84 88 106 94 110 134 122 201 175 133 114 111 114 81 130 89 108 104 108 207 103 145 198 175 206 197
188 185 103 183 184 210 186 187 188 94 91 99 96 96 93 90 92 99 99 99 122 197 170 175 228 128 116 99 111 126 118 107 108 106 101 108 111 202 165 192 197 208 196
189 213 181 192 202 211 226 190 212 107 89 87 90 94 88 101 84 104 84 87 210 210 145 203 119 118 109 114 125 105 104 112 108 103 103 104 105 112 199 190 208 208 194
222 238 233 235 115 191 225 185 207 101 88 96 83 87 82 97 92 95 95 109 126 227 230 131 121 106 110 148 90 89 97 107 106 105 110 105 107 141 189 206 211 203 195
200 244 241 232 235 221 96 131 143 102 123 154 98 88 94 81 96 108 125 93 119 133 96 87 126 111 107 93 118 87 96 112 103 107 146 106 195 201 213 211 207 203 194
226 230 241 247 230 237 226 224 224 102 104 102 103 110 90 94 194 195 127 158 143 126 125 127 132 196 169 121 125 92 101 192 105 104 158 185 224 217 209 204 201 193 192
229 237 256 199 247 230 234 229 215 217 207 82 155 88 215 166 197 195 184 198 186 189 191 124 125 123 117 116 114 100 151 113 104 212 186 217 207 203 206 199 199 191 191
222 201 255 239 120 250 240 142 211 220 219 197 237 245 221 151 207 151 113 174 193 114 92 109 106 106 128 107 104 195 211 182 209 214 211 200 210 207 201 202 201 197 191
221 215 229 239 232 241 251 235 230 197 227 250 159 204 238 223 129 124 202 123 108 104 104 142 104 189 194 191 178 172 187 181 211 212 213 203 202 202 202 198 195 194 193
220 221 223 236 239 234 235 252 236 98 214 227 245 102 231 234 223 227 228 207 92 94 99 183 107 181 185 181 181 179 178 213 179 207 198 198 204 206 196 202 201 202 202
224 224 224 220 237 246 233 242 243 228 213 213 236 237 229 225 183 176 86 97 206 212 178 165 152 107 182 183 183 171 172 171 180 170 174 179 200 204 206 207 212 209 193

GFSSE_2pvu_pres_018.txt.gz
Presure
117 116 125 120 132 135 137 136 128 138 129 124 131 127 128 131 132 115 123 139 142 138 140 118 119 149 129 146 143 139 160 154 165 163 162 158 159 120 165 163 161 158 149
136 131 109 132 101 101 122 140 138 135 137 136 131 132 131 129 135 137 128 132 115 121 138 145 105 147 94 149 134 142 156 143 152 145 144 129 159 136 129 156 131 151 161
135 137 134 140 129 136 133 135 140 118 133 135 135 134 136 137 136 134 132 142 139 138 130 145 104 99 147 123 141 135 146 117 143 133 145 143 139 156 160 177 111 144 112
126 134 129 132 131 112 132 134 134 116 136 139 139 134 130 134 142 133 137 136 127 144 144 141 140 142 137 146 131 136 136 153 151 135 130 143 115 171 166 118 182 157 164
139 168 90 120 130 156 136 149 115 126 136 135 137 143 137 136 133 140 133 138 139 81 126 87 142 134 139 120 158 141 151 156 83 120 151 165 175 167 174 160 154 151 141
106 161 96 123 126 142 146 141 139 142 89 149 141 143 141 141 140 142 144 149 141 84 145 128 131 144 138 142 109 142 150 139 130 80 82 142 151 108 125 177 184 162 189
102 153 121 130 145 154 125 111 104 90 94 145 138 145 156 130 131 128 132 99 155 144 136 132 148 149 144 100 97 148 86 88 83 92 138 93 94 110 96 161 182 178 183
147 156 147 174 161 119 149 144 84 138 149 121 170 142 142 145 124 127 153 129 147 144 141 146 152 155 128 83 91 94 130 102 91 147 92 111 162 148 161 182 187 188 192
159 149 110 99 123 97 134 99 115 142 104 150 113 94 173 122 160 145 155 148 123 135 128 118 154 134 85 89 111 82 95 149 103 90 88 151 159 114 185 181 187 191 191
153 159 112 163 158 97 97 106 96 101 111 139 131 106 171 118 139 140 136 165 154 108 96 124 101 98 99 96 75 88 122 178 124 96 90 86 95 98 146 103 106 103 105
160 162 152 172 165 104 138 114 100 160 144 119 140 155 101 168 149 107 100 148 107 116 92 85 87 82 87 124 86 110 87 89 89 99 118 100 91 94 102 96 103 105 153
173 138 167 170 140 104 122 168 106 173 146 115 106 112 192 162 112 103 137 132 93 88 89 86 86 86 91 91 91 86 103 90 99 101 185 179 146 96 139 184 103 104 105
167 174 172 171 165 186 202 106 125 114 105 105 118 91 136 142 136 168 154 97 86 88 86 86 88 84 90 83 89 150 84 92 100 154 138 165 178 193 121 105 93 97 105
121 181 187 179 205 236 100 247 145 168 103 101 95 97 118 104 108 215 229 88 86 91 91 90 88 84 90 87 200 199 98 94 83 89 102 199 112 97 165 106 112 102 111
168 194 97 239 230 178 230 148 90 221 95 93 91 90 107 100 109 108 91 94 95 89 92 90 160 88 107 107 192 166 188 111 164 111 134 153 155 108 109 104 101 106 106
207 193 127 153 211 231 227 219 209 100 101 96 102 94 108 106 106 98 84 87 87 87 87 116 129 86 94 110 100 129 122 223 100 98 116 114 109 110 108 100 107 103 102
193 224 189 185 90 200 207 195 111 105 116 196 193 87 180 159 199 92 91 98 90 92 98 101 93 116 177 220 225 211 221 126 110 114 127 90 93 107 105 106 106 106 105
232 158 185 197 201 193 191 119 196 95 107 134 138 102 119 95 94 100 98 93 87 87 100 93 99 126 232 235 130 253 124 121 110 109 144 94 89 99 112 104 104 108 111
214 205 127 218 199 183 174 188 192 182 181 140 148 173 100 96 99 87 80 88 100 93 97 96 154 95 124 214 90 195 127 124 115 112 112 116 95 103 105 103 106 184 198
219 222 212 188 205 187 199 186 94 213 187 228 217 206 99 92 97 97 89 88 87 92 95 98 104 116 113 117 126 144 126 125 178 174 91 113 101 109 117 104 110 205 203
223 125 225 226 196 224 93 205 232 260 243 235 223 207 217 106 77 100 174 92 81 95 100 196 200 195 123 200 117 111 122 97 121 122 120 169 105 151 198 224 223 226 221
217 218 210 215 218 230 226 224 266 251 245 137 102 171 222 102 102 243 204 90 108 101 135 191 193 129 163 197 191 183 168 109 103 111 205 173 191 141 203 217 216 173 201
210 211 220 184 185 199 208 212 138 148 161 238 228 232 181 155 146 99 154 134 102 178 228 215 193 198 161 180 113 100 104 101 145 138 180 185 135 183 171 182 196 205 213
207 212 214 214 210 228 198 225 213 234 232 235 134 241 227 220 205 216 173 172 245 245 235 232 139 215 199 109 99 104 106 114 181 189 149 99 176 174 175 186 172 174 173
229 213 210 213 217 225 165 221 220 227 226 242 231 261 234 226 208 223 247 238 231 240 96 226 219 97 224 170 115 182 184 187 180 104 182 187 181 175 169 173 179 182 188
219 227 221 208 206 212 213 222 226 232 225 236 240 232 250 91 92 208 226 238 238 134 231 234 219 95 188 228 222 158 213 186 128 189 182 179 180 177 174 165 183 185 181

GFSSE_2pvu_pres_021.txt.gz
Presure
111 101 136 122 134 102 129 138 138 141 138 144 144 137 140 129 142 143 139 135 130 147 135 138 133 134 117 131 135 141 137 144 144 144 152 136 152 144 141 133 167 146 136
132 127 133 132 112 136 128 109 131 136 139 130 134 128 135 142 140 127 138 139 133 139 144 140 146 123 132 143 139 100 114 142 141 135 140 161 104 133 138 140 148 136 147
125 141 133 132 118 129 124 133 136 137 139 146 144 141 137 137 138 134 137 137 140 142 138 140 136 140 137 141 93 143 149 150 141 142 141 137 105 139 131 141 126 177 163
153 147 133 132 141 131 122 134 140 132 142 126 139 137 125 135 141 135 138 140 139 119 129 146 124 142 148 145 132 132 135 117 149 152 112 143 156 128 151 149 151 175 148
141 140 158 137 128 98 158 135 144 115 136 127 126 134 138 141 140 143 123 136 142 131 133 144 144 133 90 136 149 139 140 133 140 135 78 83 82 142 135 132 132 144 139
164 135 169 138 144 122 132 98 142 167 151 97 134 142 148 132 135 111 145 131 133 159 148 84 89 143 141 123 123 144 140 104 151 160 78 91 94 92 97 157 96 122 161
129 153 147 172 131 114 140 157 130 141 165 149 145 90 143 137 125 143 141 144 139 132 125 101 146 154 145 144 159 156 103 146 139 94 89 90 113 88 95 163 163 166 131
165 148 160 163 147 130 122 154 125 144 128 142 116 96 147 135 145 144 150 148 123 130 130 132 157 141 144 133 123 143 148 87 95 95 114 94 91 125 107 89 99 169 165
129 159 156 170 131 154 171 171 155 128 137 91 89 147 134 129 114 148 145 153 160 133 149 147 119 157 160 134 97 133 94 104 87 87 123 137 91 93 87 92 93 100 96
169 135 168 135 157 155 165 154 170 164 131 124 125 115 121 107 175 122 129 115 128 176 132 117 140 133 149 128 95 97 80 87 122 89 88 90 97 106 109 109 163 98 161
151 168 164 170 139 151 162 160 117 104 101 102 134 98 106 136 132 167 133 123 157 171 152 157 101 92 98 78 87 84 98 88 90 86 90 81 100 97 101 158 147 128 171
165 157 155 161 164 160 154 107 159 170 127 95 102 117 174 164 123 145 100 151 177 102 106 156 86 87 88 86 87 85 86 90 86 86 87 97 129 103 193 101 175 185 124
173 169 154 156 166 170 160 165 164 168 101 99 97 166 167 138 175 114 134 171 173 102 167 89 83 80 89 87 84 85 79 120 87 162 163 106 80 110 139 104 178 124 110
172 164 163 176 176 167 183 189 177 114 105 143 97 181 256 106 104 100 97 210 171 102 153 115 87 82 86 91 84 197 195 114 99 169 212 205 196 113 84 125 112 115 114
167 178 163 174 177 159 179 172 166 164 189 120 98 238 109 105 110 94 229 112 103 109 167 87 90 95 93 90 82 88 90 88 232 201 115 172 119 173 94 108 122 88 102
180 179 181 172 174 172 174 177 185 199 236 198 239 147 212 107 105 84 191 103 88 210 98 93 92 88 84 89 85 87 94 104 124 119 227 139 161 233 111 110 91 90 101
182 171 179 175 90 174 221 174 228 235 188 222 216 102 198 97 85 98 82 100 101 121 107 90 88 81 85 85 97 89 97 103 234 235 171 239 239 132 122 116 114 117 106
207 171 177 179 186 216 223 224 189 235 182 192 218 204 99 104 98 106 92 111 104 115 95 95 96 89 93 97 100 96 101 88 222 219 217 87 198 132 128 125 112 117 116
208 229 236 228 227 227 223 202 223 212 141 192 209 105 145 145 108 99 98 106 116 102 136 96 92 87 84 97 89 87 104 108 114 128 143 128 207 188 102 153 161 199 128
224 225 227 226 223 225 233 242 212 207 181 202 176 186 118 172 105 109 185 132 107 97 95 80 74 83 95 85 91 95 175 200 166 154 120 183 116 122 120 104 103 111 131
215 221 220 219 214 216 217 210 135 222 200 182 193 185 203 171 248 226 111 175 104 88 91 100 77 92 98 96 100 99 103 198 197 129 139 192 193 94 102 110 111 103 139
215 220 221 219 217 214 215 226 222 185 224 180 220 211 233 227 247 250 234 233 229 137 198 144 103 106 132 100 102 102 158 170 193 192 159 111 98 184 103 109 105 106 193
209 212 214 215 215 215 212 213 212 223 217 219 212 203 213 219 221 237 247 220 237 232 224 102 98 96 100 104 165 226 232 214 138 104 190 192 97 110 125 185 103 189 184
215 216 217 212 212 230 224 206 207 208 213 227 191 196 184 196 230 246 238 243 245 229 229 190 189 214 136 235 247 212 222 92 89 124 147 174 193 186 180 184 191 184 183
209 217 219 217 201 211 217 217 221 213 173 212 175 209 162 215 214 213 255 232 263 245 235 224 212 222 232 234 232 243 90 93 230 222 225 223 215 208 208 193 185 190 188
224 221 215 215 220 221 212 208 214 225 218 214 214 219 218 183 229 217 242 246 237 244 248 234 219 208 222 238 241 162 139 233 233 224 223 221 216 219 221 219 220 209 202

GFSSE_2pvu_pres_024.txt.gz
Presure
141 134 128 138 132 131 125 147 147 148 148 152 148 151 150 136 132 148 133 143 137 162 152 148 143 142 143 140 139 132 126 92 132 109 118 143 148 145 146 148 150 154 143
131 137 133 138 105 138 129 102 113 108 147 148 126 149 142 137 127 153 122 134 134 142 142 141 140 145 143 132 142 141 132 85 138 140 142 141 144 132 126 135 140 141 131
134 126 123 132 127 138 121 137 106 128 148 148 117 120 116 149 132 149 134 140 134 145 144 133 141 136 129 143 122 95 135 146 150 147 130 137 153 122 141 136 136 139 128
145 151 139 136 135 129 146 129 129 125 135 134 136 138 141 138 155 139 142 144 139 141 134 143 120 117 131 143 140 124 142 140 121 130 122 120 79 129 140 128 110 101 112
158 143 139 138 141 133 128 134 129 129 126 111 135 141 137 145 115 151 135 138 136 112 140 137 138 144 136 141 124 106 152 142 147 144 141 139 134 150 107 97 96 142 95
110 125 116 156 140 153 150 134 140 96 140 146 97 126 131 136 102 132 132 132 135 134 125 146 92 133 140 148 144 146 129 113 144 140 85 150 144 88 94 98 150 92 140
142 154 145 153 130 136 159 128 117 137 137 127 131 123 149 131 140 134 147 145 145 146 142 123 149 147 147 131 140 140 132 141 153 113 145 84 88 129 92 89 90 88 130
153 150 133 145 142 158 113 123 143 121 130 140 148 148 149 145 160 161 152 135 141 146 146 150 139 103 122 144 134 142 135 128 126 81 79 115 84 133 90 92 92 94 93
122 134 165 129 136 155 140 165 144 146 140 132 145 125 118 158 144 105 150 153 142 130 145 139 142 145 159 149 140 134 132 121 144 92 88 90 118 89 95 81 97 101 109
98 128 104 168 132 171 146 168 151 158 178 159 159 169 121 134 95 140 163 128 142 184 140 128 138 132 131 129 166 121 116 128 82 84 89 84 89 109 82 87 94 89 107
134 164 133 168 120 126 181 153 117 126 168 152 164 163 168 95 96 175 114 135 153 163 124 115 125 145 185 141 89 88 90 87 84 84 83 87 89 78 94 108 95 104 107
155 169 133 120 152 174 163 130 164 171 152 153 140 168 163 111 157 146 104 137 163 163 134 135 172 166 182 98 91 80 87 90 85 83 87 95 87 132 125 165 199 109 134
156 178 164 92 169 160 166 166 155 169 111 172 160 106 121 102 103 164 186 135 186 180 103 169 186 104 173 104 88 85 89 91 86 82 83 83 180 148 218 224 218 179 121
164 160 176 159 165 175 171 166 174 170 176 160 161 99 174 142 101 101 168 181 182 165 149 183 176 121 180 87 79 85 90 85 92 90 89 84 94 242 247 225 104 236 145
175 164 174 177 179 153 164 178 175 178 172 164 174 179 175 156 95 183 168 168 128 108 198 158 240 103 139 179 92 98 97 91 88 85 137 91 98 246 121 242 222 148 222
164 147 174 179 165 149 182 180 165 173 118 175 178 176 179 133 179 98 221 131 118 230 104 138 231 108 102 90 93 91 87 91 81 99 90 92 89 107 110 186 99 216 240
162 171 159 182 179 163 179 184 175 177 191 183 184 179 164 186 188 231 225 164 106 102 88 108 209 109 111 115 94 83 90 80 94 101 97 89 102 103 194 87 219 215 207
174 174 182 115 170 176 176 168 175 188 100 215 173 182 200 229 238 234 194 105 220 95 99 104 106 102 109 140 96 91 96 94 102 97 90 94 97 103 106 118 118 193 123
180 169 168 170 178 171 171 174 179 213 228 225 230 223 229 224 212 220 202 116 165 103 95 125 98 112 106 196 103 90 95 99 93 92 90 99 89 101 152 200 159 140 162
182 186 192 195 177 220 196 215 216 218 214 219 215 224 223 217 234 225 221 187 107 107 227 103 177 96 107 101 104 83 83 91 91 97 99 98 102 100 107 109 119 104 177
190 212 215 213 213 216 206 208 211 204 203 202 199 213 211 224 227 217 215 228 199 102 104 104 106 217 219 233 84 104 96 96 102 99 97 90 82 105 100 195 87 187 194
208 214 215 213 202 208 224 218 222 215 222 224 225 219 215 216 215 215 215 211 191 231 209 221 218 250 145 111 225 94 96 226 96 102 102 97 101 214 207 178 90 194 191
208 211 217 210 205 210 214 221 219 219 214 209 210 206 214 214 216 217 213 216 220 213 100 198 228 243 247 234 235 231 192 93 100 222 92 157 235 131 233 153 113 220 202
211 208 212 213 211 215 215 216 202 209 211 199 194 201 193 207 207 202 201 202 213 198 201 222 200 251 243 251 242 230 215 216 194 92 150 219 227 241 95 97 232 227 223
206 150 211 212 217 232 203 217 213 211 211 212 197 204 204 204 204 212 210 207 175 224 205 170 230 224 259 235 257 246 236 228 217 207 199 235 223 226 106 236 230 225 221
218 219 221 226 226 225 223 216 216 213 206 219 215 194 202 199 206 210 216 217 215 224 213 217 228 234 249 247 235 241 244 182 136 235 224 201 210 237 241 239 232 227 222

GFSSE_2pvu_pres_027.txt.gz
Presure
133 134 137 133 147 143 112 140 121 126 128 147 147 156 155 150 140 152 157 152 126 145 133 134 133 138 141 151 151 143 142 155 142 96 145 141 142 145 143 149 143 128 138
125 127 134 138 138 101 141 141 142 143 99 144 107 144 144 151 112 158 156 157 149 124 130 106 126 129 130 159 153 146 141 142 112 135 142 139 141 144 140 123 150 148 146
148 127 124 133 126 141 132 145 133 134 150 150 148 145 155 147 146 147 149 130 134 128 133 136 136 136 157 145 144 98 142 132 148 135 141 145 126 125 100 125 133 127 133
145 140 136 139 141 125 133 124 125 143 136 104 141 133 139 147 154 150 148 144 144 147 153 143 147 161 153 150 120 146 129 138 143 131 141 141 78 154 133 144 141 94 125
109 119 149 144 147 138 127 130 130 130 131 138 131 127 133 138 114 125 145 157 150 149 144 149 140 139 138 116 141 142 133 142 144 149 144 143 98 150 143 140 130 114 87
140 124 135 104 152 149 143 153 143 149 138 134 130 136 129 130 128 131 134 105 131 142 143 152 147 125 120 139 136 133 144 142 129 133 138 119 142 148 142 106 129 112 86
102 99 154 120 126 114 117 125 141 146 140 128 125 130 141 118 116 131 141 129 119 140 145 146 150 148 143 142 147 113 151 128 143 150 143 149 82 97 128 93 88 97 86
129 159 130 144 149 138 139 147 141 148 123 138 144 94 145 145 148 149 150 146 144 167 148 153 160 151 149 143 138 135 144 135 146 152 119 102 107 110 86 149 112 92 97
90 122 154 160 134 137 158 142 151 148 154 170 113 143 137 137 148 150 122 142 143 132 147 150 148 135 131 140 161 160 127 143 149 135 82 84 96 84 89 89 82 87 156
155 108 135 149 138 119 123 149 133 146 134 133 157 159 162 165 142 143 115 144 158 154 151 125 122 125 135 136 124 115 187 131 179 128 83 87 93 84 89 83 78 122 177
141 165 146 170 117 153 133 146 132 176 126 150 148 163 167 158 153 127 165 168 104 106 170 168 172 125 153 173 125 145 145 127 190 153 86 91 88 87 84 83 96 117 88
174 167 151 156 160 134 160 112 137 142 114 174 162 177 138 131 168 153 139 139 97 114 129 162 168 176 175 175 154 182 192 99 91 85 89 87 85 92 115 103 157 175 111
148 106 104 119 151 163 102 169 153 166 117 148 170 142 168 174 175 168 159 165 99 108 166 127 165 173 173 127 177 107 179 187 91 87 92 85 76 84 84 82 94 194 240
97 108 93 120 159 152 153 153 168 138 180 159 180 175 161 167 172 167 177 175 170 103 134 181 181 118 190 185 190 112 111 89 91 89 89 92 92 88 95 215 93 96 103
162 116 165 167 161 154 171 185 175 164 167 179 174 167 179 185 169 174 190 166 149 126 102 175 179 189 183 217 157 190 138 228 147 92 99 89 88 91 99 90 87 98 89
177 178 174 177 170 184 172 178 182 172 179 182 182 181 186 171 169 180 191 116 183 188 135 120 182 162 116 104 173 107 228 90 222 93 85 78 88 93 99 90 89 94 96
176 173 176 179 169 166 164 179 174 183 173 175 183 183 168 101 199 187 179 170 194 185 136 135 112 238 214 112 110 129 164 109 99 86 90 91 94 95 89 90 94 96 95
182 176 170 175 172 176 180 184 185 175 166 182 178 191 109 193 186 171 182 252 254 183 177 226 134 242 200 118 107 105 116 107 167 187 102 87 95 99 90 87 91 95 98
182 183 186 185 171 172 178 126 180 178 181 188 189 176 183 173 179 209 229 234 199 225 232 239 114 221 143 194 97 101 102 106 103 109 79 98 88 88 90 97 97 92 99
177 184 180 182 187 193 190 186 177 179 180 182 173 182 210 193 215 221 219 217 220 225 223 223 205 202 202 141 103 108 129 86 82 88 95 199 97 92 96 102 98 102 96
185 193 198 186 197 188 187 189 190 194 194 184 202 214 212 213 206 205 203 204 204 207 206 209 220 218 235 209 109 108 107 108 110 94 110 96 101 97 102 107 229 93 97
199 201 198 201 188 187 191 199 201 199 203 215 206 200 217 218 224 224 224 221 218 218 219 221 128 218 215 218 222 220 214 222 241 253 250 242 237 236 229 109 215 80 97
199 197 198 201 204 205 205 210 211 210 208 210 210 200 205 217 208 205 206 215 212 215 216 207 214 221 207 217 159 168 102 150 159 180 242 248 239 164 228 220 222 154 226
201 201 205 204 205 209 212 211 206 203 201 207 211 200 200 205 212 211 191 195 198 200 198 204 204 202 214 211 204 203 217 190 174 248 246 242 249 248 170 231 232 219 211
211 211 212 212 209 206 212 222 221 214 202 205 205 208 207 215 209 210 205 202 204 198 204 203 213 215 215 224 230 217 222 89 232 228 250 237 238 246 239 270 243 277 227
212 211 211 212 215 217 167 214 221 223 216 214 215 214 216 221 203 199 199 196 210 211 206 202 207 213 211 212 228 227 223 222 223 220 241 243 233 239 242 225 230 271 268

GFSSE_2pvu_pres_030.txt.gz
Presure
122 136 133 133 140 150 130 135 130 154 146 143 141 142 132 150 154 123 149 147 133 129 140 149 120 139 153 139 125 119 138 134 149 159 151 147 157 128 150 148 140 139 124
136 123 130 129 132 129 148 142 100 141 152 150 139 137 128 131 140 137 156 137 158 157 127 159 151 149 140 138 134 136 137 160 159 115 144 127 152 158 133 145 123 105 142
137 157 121 132 126 128 130 135 148 141 142 141 142 141 145 149 150 147 148 148 149 150 152 159 158 156 141 155 136 156 146 146 143 152 104 145 143 143 121 139 138 142 139
142 121 143 155 128 135 128 124 129 126 137 134 145 142 111 136 123 135 138 136 152 136 134 135 147 155 148 155 148 145 139 113 145 157 143 138 156 86 136 132 124 139 136
126 112 126 141 149 151 151 138 135 138 130 130 124 129 122 115 141 152 146 124 133 134 133 131 148 152 149 135 153 132 154 138 135 131 134 150 147 140 118 148 140 144 92
128 148 131 138 105 109 107 124 147 144 145 135 137 142 105 134 149 132 133 137 97 135 130 134 153 122 159 161 143 161 118 153 134 137 150 142 125 139 124 143 132 147 89
137 127 127 150 121 152 135 140 114 141 145 150 149 151 150 143 145 107 131 111 142 125 134 99 138 138 136 134 143 138 142 150 151 148 125 147 137 79 83 124 88 140 108
141 137 142 99 119 108 136 157 145 109 143 127 148 152 146 144 95 114 124 150 136 159 155 148 150 143 103 136 140 127 145 141 134 142 142 128 104 86 156 107 175 85 86
84 94 96 108 95 133 133 128 143 144 119 143 145 141 142 152 150 108 163 154 139 148 147 145 146 155 157 157 147 155 130 141 154 129 146 141 97 83 128 85 90 84 80
155 135 135 160 90 91 156 135 125 149 145 127 133 133 129 140 148 132 123 143 161 167 147 163 163 152 156 158 166 169 146 128 172 142 132 160 82 88 140 87 84 77 102
144 152 141 138 119 147 147 153 152 142 149 161 153 150 150 135 126 135 162 153 160 138 166 158 137 169 157 173 173 157 155 134 171 173 157 132 137 117 90 87 93 83 121
101 101 103 104 102 148 152 153 152 100 163 161 155 154 136 138 152 147 133 172 178 181 166 157 162 173 168 160 163 157 165 123 170 172 167 125 90 87 84 83 87 82 80
158 164 165 155 131 140 150 149 152 155 167 127 164 155 167 166 158 141 155 175 150 174 181 180 167 153 180 111 181 171 119 179 142 193 159 92 89 121 86 80 86 92 95
165 167 173 187 186 181 184 141 176 174 171 171 129 147 166 167 172 172 155 181 169 181 185 179 173 179 180 129 109 194 129 175 117 194 107 105 96 90 90 91 88 91 97
139 148 169 184 187 186 184 152 151 155 167 155 153 158 171 163 183 172 183 175 171 182 187 178 187 96 97 103 102 188 184 206 187 178 136 229 90 125 96 86 92 90 97
161 165 170 181 168 178 185 184 160 160 174 164 172 176 172 191 181 85 191 184 187 189 186 195 180 152 200 190 187 176 213 241 137 109 132 117 103 90 86 87 93 94 95
186 181 176 179 172 102 177 179 183 189 181 186 180 186 172 175 175 177 183 168 177 179 175 196 194 244 193 174 107 236 110 198 133 224 113 113 112 108 93 94 85 96 94
192 151 177 183 187 190 185 175 174 180 181 177 181 182 184 179 182 189 195 197 188 198 196 185 189 217 237 231 240 238 229 202 232 218 114 109 137 107 106 105 106 86 89
163 175 159 163 169 173 177 178 176 178 180 181 187 190 186 187 185 190 197 184 189 205 198 225 216 220 218 215 217 215 215 167 166 239 207 99 99 102 96 104 96 179 213
163 161 163 173 159 162 168 168 177 178 183 188 183 184 181 189 186 184 191 192 198 195 220 232 225 228 214 222 227 230 221 225 220 219 222 189 173 190 160 125 142 110 247
175 179 181 183 181 182 180 184 184 180 177 173 193 200 184 191 192 187 195 203 222 239 232 223 222 215 213 212 222 218 216 216 221 220 153 104 223 100 231 258 245 251 248
189 190 181 182 191 189 189 196 195 209 204 209 194 195 196 192 201 208 212 211 206 204 206 204 205 209 214 214 220 216 201 209 210 204 223 238 240 188 220 240 210 184 250
203 196 195 200 204 196 189 204 202 195 208 193 199 202 203 207 202 208 210 202 201 214 203 176 207 215 211 208 203 200 202 205 216 215 215 217 234 228 223 221 230 260 247
205 204 203 202 202 209 214 205 204 202 199 201 203 206 206 209 201 204 215 206 199 202 209 206 206 219 214 213 213 215 209 213 203 211 218 215 223 218 222 228 235 226 248
214 211 211 213 211 208 96 215 211 206 211 213 207 202 210 209 208 203 200 211 212 196 203 204 212 214 207 203 208 217 217 209 208 212 216 213 218 176 228 225 216 226 243
213 205 209 211 202 199 201 205 208 210 208 205 208 213 215 213 211 212 214 200 198 202 197 199 195 207 208 212 210 202 213 215 212 208 209 211 216 206 222 219 217 219 239

GFSSE_2pvu_pres_033.txt.gz
Presure
108 108 108 124 147 134 151 152 151 146 126 140 155 159 157 155 130 142 103 125 153 157 153 156 153 131 132 158 142 159 163 120 140 144 156 139 137 141 111 149 142 127 145
111 126 134 145 136 125 133 149 151 147 149 148 157 158 153 149 143 150 152 139 158 160 147 162 161 159 157 151 160 158 154 148 157 94 136 156 97 134 133 118 136 144 132
148 147 138 124 123 118 125 131 138 145 146 139 131 148 146 155 114 148 150 156 95 148 149 151 153 155 157 153 148 156 154 149 134 137 96 134 148 111 99 154 141 117 128
133 81 126 145 145 154 142 125 127 129 130 127 138 131 135 144 135 148 110 139 137 148 142 124 141 135 134 130 136 129 139 147 155 148 154 147 159 159 127 132 140 129 120
145 117 130 118 138 129 131 157 145 143 129 136 134 132 137 138 134 135 132 135 131 133 139 127 127 147 145 145 134 138 150 155 132 131 137 145 142 140 155 148 128 148 120
129 102 128 126 145 134 131 115 153 124 157 139 140 139 143 142 133 139 141 144 146 142 136 132 139 142 129 142 123 140 136 139 106 92 151 141 146 135 135 133 141 137 103
145 101 146 120 124 140 128 130 124 149 128 148 144 122 140 145 123 153 122 124 133 137 149 123 136 136 108 153 160 161 159 148 153 142 154 147 128 148 133 89 91 138 90
138 132 142 109 142 134 141 143 127 150 125 122 152 149 149 142 140 142 147 146 120 161 155 146 139 155 149 159 157 147 154 156 162 135 157 160 147 166 167 172 85 81 147
136 138 134 139 140 119 121 119 114 139 137 132 134 140 133 156 152 152 134 157 121 123 140 123 142 144 142 145 130 148 167 163 168 175 174 164 161 154 101 85 123 96 87
147 88 88 94 138 134 132 122 136 98 142 128 145 176 143 143 159 158 147 139 154 165 160 163 142 132 142 150 156 145 148 139 136 172 151 163 122 164 160 84 177 85 85
153 140 156 147 139 115 110 148 146 144 144 112 157 147 153 153 157 150 145 142 154 149 131 131 148 154 155 131 142 178 180 161 166 163 152 181 145 165 184 97 89 89 86
142 144 145 155 149 140 137 157 145 128 124 140 138 135 118 157 151 133 159 157 162 155 161 131 154 154 156 151 170 168 177 178 159 186 176 150 138 119 188 92 89 85 84
140 104 90 139 160 109 142 130 113 144 143 138 139 142 141 153 149 161 152 102 148 178 178 162 160 175 174 173 175 164 182 181 176 118 158 170 110 191 200 101 90 93 82
145 118 99 95 120 141 151 127 142 167 169 168 149 141 190 176 191 186 160 182 170 179 165 157 162 165 186 194 193 186 193 193 194 200 181 199 232 204 185 119 95 89 89
134 96 138 168 124 170 163 115 150 165 163 163 173 190 89 124 171 185 184 180 182 174 165 192 180 191 198 188 174 192 129 182 181 174 110 248 169 188 236 177 94 90 175
160 162 143 177 90 140 90 163 143 153 149 143 154 157 187 188 185 160 187 171 184 192 188 192 193 186 187 192 203 199 178 230 234 228 214 204 124 149 152 187 96 115 84
180 179 173 184 123 180 181 114 182 171 176 175 169 179 177 172 174 179 181 182 183 182 187 180 181 175 184 201 201 209 237 230 233 231 217 110 208 217 220 219 233 154 224
183 181 184 185 182 186 184 184 187 196 189 180 180 185 196 196 193 186 183 183 191 191 192 194 189 194 195 195 215 238 228 245 240 231 231 223 233 229 211 203 125 230 141
173 172 175 179 175 175 173 173 185 183 184 165 165 170 171 171 172 171 176 185 182 184 200 199 192 194 194 211 214 215 211 219 215 212 217 225 216 221 218 210 217 226 101
173 162 167 171 173 173 173 171 177 174 167 164 163 162 164 174 179 181 181 181 199 205 201 196 197 196 206 223 207 213 218 208 217 222 209 202 209 198 201 205 227 202 225
174 173 174 173 171 172 176 171 178 173 179 179 179 184 183 192 185 193 194 196 208 191 193 201 206 204 204 212 219 205 209 210 212 224 213 212 207 220 205 210 195 229 228
190 189 189 188 185 187 185 186 190 194 197 206 194 189 196 203 195 193 209 196 203 199 196 198 207 206 208 209 205 208 210 208 213 218 218 210 205 210 224 209 208 217 220
188 191 186 189 190 194 193 202 206 214 206 204 206 207 202 200 201 212 203 202 197 204 205 203 201 205 206 204 206 213 215 201 208 212 220 218 221 214 217 222 214 215 215
202 200 199 202 210 213 213 214 212 207 205 202 202 203 202 206 212 206 211 202 195 201 200 203 206 206 204 202 207 204 196 202 209 217 216 203 212 211 216 221 215 204 215
218 221 216 216 211 212 216 209 208 206 208 210 210 211 215 214 205 201 205 205 204 201 209 212 203 202 200 192 197 200 200 211 206 220 218 215 213 206 206 218 200 212 209
169 195 126 215 217 212 216 213 217 220 210 208 202 200 202 205 205 201 202 206 213 203 201 195 192 200 202 205 205 204 209 207 217 207 215 216 211 207 208 203 211 208 213

GFSSE_2pvu_pres_036.txt.gz
Presure
108 117 112 122 149 150 142 155 152 144 146 141 147 154 134 154 147 154 158 124 148 146 148 141 152 156 136 159 152 154 153 146 158 158 160 144 149 135 159 155 126 143 125
123 130 138 105 107 149 149 117 152 146 155 155 157 157 159 161 159 163 157 156 162 135 141 146 156 159 147 141 123 127 131 129 143 130 144 144 146 157 158 105 128 136 126
134 140 143 133 116 131 146 147 141 128 128 153 147 154 150 133 144 118 156 149 158 157 101 152 149 153 153 157 157 156 149 151 125 153 139 146 152 114 143 127 145 131 152
141 145 138 121 117 134 133 123 127 132 136 138 136 125 129 141 141 144 132 138 142 126 139 137 127 136 143 142 144 141 147 127 144 127 129 122 95 133 143 140 144 139 107
117 114 98 137 147 127 118 122 132 131 137 146 133 116 134 116 141 138 138 132 140 134 142 144 142 130 146 145 137 136 128 147 150 152 149 155 139 155 155 151 158 160 128
132 134 109 148 140 121 97 110 151 147 133 118 140 118 152 146 147 151 121 138 131 126 107 114 124 151 144 122 151 123 160 142 151 154 125 169 133 171 170 151 134 133 170
133 107 141 135 127 110 145 124 133 143 145 125 117 137 149 142 158 158 146 145 145 142 136 131 133 145 159 158 107 155 114 146 146 135 154 155 158 146 153 142 167 161 138
109 131 137 145 139 132 131 123 141 140 138 109 141 122 141 136 118 115 134 119 126 133 148 156 136 126 115 144 102 155 152 145 139 126 146 148 152 155 165 142 157 154 134
118 143 141 142 138 115 140 118 136 143 138 120 113 126 133 132 120 140 144 164 152 157 149 149 159 149 141 150 149 145 145 142 144 148 152 141 149 164 181 179 188 148 124
144 142 138 134 118 133 138 143 140 129 131 139 135 143 109 143 140 136 152 141 153 153 170 139 150 139 158 108 158 157 145 162 157 136 147 125 151 169 187 182 181 144 89
141 141 142 129 143 141 134 139 127 143 126 113 138 143 141 140 110 149 146 144 150 157 139 156 157 160 164 155 156 163 159 170 164 152 160 139 168 175 170 174 190 194 97
132 146 150 147 143 149 145 142 147 141 100 159 146 137 133 146 147 163 152 141 138 139 146 149 150 148 137 154 151 172 164 162 164 158 165 169 179 191 189 152 191 190 125
111 135 147 140 118 136 156 149 148 146 142 143 151 156 133 105 137 139 116 148 164 136 133 198 160 180 146 182 183 181 153 180 158 184 185 189 116 189 211 226 180 180 184
147 142 140 132 115 140 140 160 142 137 143 132 98 139 146 164 147 150 154 165 167 109 187 190 188 188 187 184 178 176 182 186 191 194 184 182 194 236 233 238 229 176 214
125 141 143 140 146 148 140 147 146 132 107 146 145 165 135 172 154 172 169 154 174 99 107 127 178 178 179 180 181 195 191 198 187 191 207 111 202 249 212 242 237 236 234
146 137 141 145 149 150 109 96 166 127 152 90 165 102 176 175 175 170 96 154 182 151 180 156 189 190 189 182 183 189 190 208 199 196 205 225 223 211 222 222 219 232 222
169 153 155 161 152 159 168 170 159 72 99 176 175 177 193 93 198 194 196 197 188 178 182 186 186 184 173 172 184 204 195 193 203 198 216 219 211 217 215 232 221 169 218
143 170 173 170 169 163 164 119 170 173 179 187 185 189 188 185 180 177 183 183 183 163 169 169 164 165 171 180 196 215 209 203 198 209 209 215 217 207 217 230 221 211 200
176 170 165 164 164 167 169 175 180 185 169 175 180 180 175 174 171 170 171 172 168 165 170 178 186 188 190 193 209 204 203 203 202 206 211 207 214 217 209 210 221 224 197
182 183 182 182 184 185 184 173 179 177 164 160 166 170 166 170 168 168 168 168 167 172 173 198 183 198 197 200 211 197 197 205 209 208 208 207 206 202 207 207 213 233 216
179 178 172 183 189 182 181 179 180 178 180 174 179 181 177 180 189 188 186 191 214 206 206 203 200 194 198 203 202 208 201 206 203 203 207 207 204 210 199 206 216 218 212
183 184 181 179 180 180 182 184 187 187 185 192 193 195 189 186 195 201 207 217 205 201 199 201 196 196 203 201 207 198 198 197 207 210 199 196 201 191 205 211 214 204 223
183 190 189 189 192 190 194 203 210 209 209 199 192 196 203 202 214 215 215 205 201 203 205 206 205 209 211 202 203 201 199 207 202 200 199 198 211 205 208 212 210 218 222
195 193 199 211 215 212 212 203 217 219 219 216 204 201 218 217 211 213 208 208 208 212 214 214 216 208 203 205 197 204 207 196 200 195 202 202 201 225 215 208 216 213 220
155 159 158 212 190 188 222 155 196 217 213 216 222 214 213 214 217 215 217 208 207 204 205 198 210 209 207 202 203 202 194 195 201 210 202 220 222 219 223 210 215 219 224
176 160 205 152 160 218 205 199 222 225 183 220 197 219 190 201 220 214 211 204 208 204 202 198 194 200 202 201 200 201 202 199 208 218 218 215 222 217 218 221 217 223 211

GFSSE_2pvu_pres_039.txt.gz
Presure
125 136 120 130 107 125 150 144 158 159 164 163 142 116 153 148 144 148 137 140 164 165 162 148 154 153 146 144 135 148 162 135 153 154 156 152 149 132 122 115 144 140 154
132 112 135 109 149 115 125 115 136 150 121 94 153 152 149 157 154 131 155 156 128 160 159 149 164 123 129 160 137 128 147 145 137 134 148 153 144 148 145 136 143 127 137
104 100 115 133 122 131 106 141 138 153 139 148 144 138 134 126 125 124 127 126 129 146 137 142 135 103 134 144 145 142 137 142 145 144 136 123 140 133 140 142 143 150 153
117 122 127 140 131 146 141 137 133 124 126 131 134 132 136 137 138 136 136 136 135 107 137 130 140 139 135 134 138 131 145 151 151 150 153 152 133 164 139 94 129 128 157
150 140 145 127 127 134 135 141 141 140 128 125 116 126 133 121 125 142 129 145 145 145 140 145 141 141 145 137 130 127 156 159 143 149 141 141 161 159 148 151 152 154 133
110 114 118 117 117 117 125 148 143 137 138 118 139 128 142 111 134 111 113 125 154 156 160 159 153 154 146 116 157 157 132 129 149 154 160 147 150 150 107 149 155 156 154
145 143 141 130 136 144 147 136 142 134 138 133 131 122 122 129 135 141 142 143 140 124 124 132 141 128 143 128 167 117 152 153 153 158 153 157 126 143 104 157 123 159 165
139 124 109 133 133 129 130 136 129 110 130 132 117 129 137 125 138 117 114 118 136 120 138 144 144 150 152 152 135 163 121 144 149 154 147 153 157 140 163 174 173 169 161
142 131 91 130 102 139 144 134 135 135 129 126 136 148 132 143 122 113 134 144 141 144 146 153 126 150 148 151 153 155 150 125 160 180 148 147 159 157 177 141 168 165 162
82 136 120 133 132 131 125 128 128 133 110 146 136 96 143 147 149 146 143 138 140 139 158 134 151 152 147 145 137 149 140 152 153 147 114 148 174 177 189 161 179 163 115
142 142 131 151 107 139 89 129 142 106 106 143 121 143 146 148 139 97 145 156 140 84 133 142 140 138 153 150 149 148 185 176 174 191 191 155 182 178 180 179 186 185 197
137 145 137 128 130 128 133 124 135 136 119 144 144 148 148 150 142 130 149 142 142 132 112 150 145 154 141 144 147 176 158 175 186 182 183 181 180 182 197 201 185 193 199
142 143 145 149 141 137 139 141 135 147 146 139 137 141 143 150 156 145 139 145 150 115 124 149 152 126 173 178 171 164 179 182 180 171 173 190 183 184 191 193 202 207 230
152 94 139 85 79 147 142 140 134 149 137 141 94 141 138 145 142 159 158 98 141 148 171 170 102 169 170 174 157 187 182 182 195 198 187 181 178 182 189 194 201 227 215
74 141 140 140 150 153 150 83 144 144 122 129 141 146 147 148 94 128 165 121 155 160 171 163 191 196 196 162 102 191 181 176 174 172 172 171 178 214 215 212 215 152 231
143 145 153 140 118 144 102 142 143 106 141 145 145 152 151 109 87 116 173 167 152 183 183 192 149 184 177 180 179 178 166 173 165 166 178 190 202 212 210 212 205 210 213
146 142 142 144 141 144 153 151 151 150 77 170 149 153 84 156 174 172 171 175 177 175 186 185 178 173 171 167 166 170 164 167 175 184 191 203 215 207 208 214 214 212 209
153 141 145 152 150 150 153 168 152 160 164 173 177 79 176 171 93 168 179 184 176 174 170 176 174 166 171 178 168 169 178 210 196 193 200 206 201 212 207 206 204 215 207
158 165 165 160 162 168 167 165 167 161 166 168 78 171 170 176 181 185 181 180 173 171 161 169 169 170 179 183 201 214 208 202 203 202 196 204 206 207 200 201 219 207 200
166 171 160 164 164 166 169 172 174 175 179 184 185 184 184 188 196 185 182 180 183 186 194 196 198 191 199 213 212 208 205 201 197 197 199 210 203 198 201 208 204 201 201
177 176 79 76 173 178 178 172 172 170 173 175 178 178 181 183 182 183 182 190 196 200 197 199 201 200 216 212 212 201 194 199 201 203 205 201 192 200 204 209 199 198 220
180 178 173 172 180 179 180 182 181 186 185 190 181 183 182 192 193 189 207 215 215 219 206 206 202 219 210 205 205 208 207 211 207 208 199 188 195 199 200 201 196 203 211
181 183 181 178 180 178 177 182 189 192 189 191 195 216 201 224 231 223 219 223 224 215 211 215 211 206 213 212 213 208 207 207 198 192 206 206 200 198 201 197 191 210 221
182 188 191 155 154 188 191 190 189 190 200 183 194 219 236 223 218 153 228 225 225 225 221 220 219 182 219 220 214 205 192 199 203 193 194 200 202 199 199 199 207 211 221
174 179 184 196 197 182 165 167 183 157 151 179 186 191 150 169 210 220 178 181 211 213 208 189 211 208 208 204 182 204 200 201 194 193 195 199 195 200 198 212 215 226 216
167 179 185 198 195 197 191 152 179 161 153 169 156 189 222 223 229 227 219 205 211 219 211 209 211 208 207 204 200 201 202 205 201 201 200 201 199 211 219 213 220 209 210

GFSSE_2pvu_pres_042.txt.gz
Presure
136 123 141 108 102 161 126 165 163 161 122 151 121 163 160 160 138 151 155 155 153 119 159 139 137 134 112 161 137 141 150 145 146 141 136 147 145 144 141 146 133 143 144
116 117 89 99 114 102 98 116 105 131 135 140 146 153 154 154 151 124 132 131 125 155 138 104 140 132 136 133 137 135 132 137 147 140 137 121 146 160 161 164 160 165 128
144 145 151 105 120 140 112 126 135 129 112 141 142 144 143 145 132 130 128 135 138 134 135 143 147 146 147 141 142 119 142 139 123 138 142 148 154 156 149 166 139 148 138
142 152 142 135 93 118 146 143 121 125 140 117 130 125 137 139 136 135 136 125 132 133 130 132 113 152 126 139 154 156 134 130 141 146 157 131 154 151 127 146 159 120 145
132 132 116 97 101 118 134 136 130 140 138 141 152 140 123 119 141 142 123 129 147 135 123 139 147 138 134 130 121 138 131 135 151 155 131 159 167 142 162 156 167 172 144
134 149 141 145 147 151 134 151 117 123 124 130 120 145 141 132 129 124 118 125 132 105 138 134 139 113 118 124 140 146 121 149 148 153 134 132 141 158 134 144 127 91 175
133 128 143 131 134 117 133 138 128 139 150 148 145 129 128 132 130 123 131 122 139 137 125 125 129 142 143 143 142 146 142 151 158 155 124 116 147 149 147 135 125 164 162
135 137 141 140 137 144 130 121 156 136 139 133 136 135 130 140 120 136 129 147 133 123 115 120 150 149 121 130 145 139 135 142 142 162 135 150 135 160 179 159 191 192 193
135 138 138 132 126 120 137 133 132 126 127 133 134 136 139 142 147 148 129 138 139 127 146 144 144 144 149 154 116 154 141 150 153 156 147 144 155 179 190 176 162 173 180
103 129 129 135 142 146 133 130 127 96 132 126 127 114 134 146 133 143 142 139 146 147 101 97 141 152 147 133 133 136 147 147 149 146 180 174 188 177 162 185 187 173 190
145 111 101 90 123 123 120 124 127 120 133 137 139 139 124 118 124 137 150 148 92 108 106 134 147 136 155 139 150 149 153 124 125 183 190 194 194 189 134 183 189 190 185
131 150 144 135 141 134 137 140 141 134 84 133 113 134 116 131 142 95 133 130 140 149 140 136 146 147 150 140 156 166 156 177 201 196 196 196 201 192 182 175 173 171 172
136 141 128 135 138 142 142 136 139 145 137 139 138 142 143 143 142 155 155 143 136 152 137 146 148 151 117 155 107 170 182 185 193 187 143 180 170 181 174 174 172 172 187
144 135 125 99 140 143 142 153 143 142 146 146 141 146 147 136 155 153 155 143 141 152 151 157 148 97 102 175 170 171 179 184 96 177 168 173 171 168 170 168 169 182 195
150 96 151 145 125 117 136 88 114 148 134 86 136 149 151 131 147 84 145 122 152 157 143 112 157 169 171 171 174 110 172 170 170 175 171 167 175 175 171 182 203 201 201
141 142 139 142 119 96 117 133 150 152 155 142 131 143 147 151 154 155 153 140 83 82 118 180 182 169 174 183 184 175 164 172 164 172 171 177 201 215 210 207 208 205 198
144 153 154 149 145 95 144 144 139 142 156 75 148 142 147 149 149 160 167 170 81 164 176 180 181 185 185 190 179 180 179 181 189 193 193 207 217 212 206 204 199 204 206
150 149 150 149 150 146 147 154 149 152 146 145 154 155 166 84 156 171 168 174 178 182 182 181 181 182 183 181 183 184 195 217 216 200 201 214 215 204 200 199 197 206 209
146 155 149 150 148 154 151 149 146 148 150 158 165 166 170 173 169 172 176 179 171 175 181 182 181 183 189 193 205 209 214 212 197 197 214 210 207 202 201 201 207 206 208
158 156 158 159 152 152 152 155 157 164 168 168 167 165 170 171 177 106 183 183 188 191 183 187 199 201 229 221 203 217 218 212 202 215 215 206 213 212 205 211 202 193 209
161 168 169 166 167 172 173 171 168 168 172 175 174 179 182 176 183 186 178 190 194 187 200 191 180 230 193 226 226 218 210 212 215 205 207 216 211 215 209 201 191 195 199
165 164 163 165 170 175 172 171 172 179 180 177 182 186 188 183 170 185 189 187 179 184 158 206 239 229 186 174 224 226 221 216 216 209 173 207 205 199 201 192 190 199 194
172 170 177 174 172 175 177 180 179 175 177 181 177 183 191 201 200 177 177 163 161 164 184 165 197 162 193 232 211 195 196 196 213 193 205 203 202 199 186 191 199 200 199
179 175 171 175 161 183 183 186 184 185 184 171 182 191 175 170 211 155 153 147 190 221 227 175 186 197 225 187 212 212 220 216 207 199 204 203 199 199 200 197 198 197 198
179 179 178 175 178 179 178 179 178 187 190 178 155 190 179 202 166 153 219 243 161 208 198 183 220 225 194 219 189 190 209 199 206 206 203 203 204 205 203 199 203 207 214
171 184 177 182 180 160 167 178 181 190 174 187 187 166 188 175 195 214 161 221 213 193 216 206 224 185 190 207 216 221 220 220 226 236 247 243 241 233 231 226 222 222 223

GFSSE_2pvu_pres_045.txt.gz
Presure
127 135 128 130 135 123 119 139 142 156 92 132 143 101 137 125 125 121 147 151 106 129 130 128 133 138 134 142 137 139 146 144 149 148 154 152 146 144 139 148 154 153 149
97 148 174 132 126 148 117 152 126 124 142 170 151 132 135 112 146 140 149 146 129 131 127 140 135 145 106 145 144 146 144 142 149 147 141 134 131 144 151 155 150 159 139
122 138 125 140 138 161 105 114 104 130 131 142 107 119 144 142 131 122 133 141 137 136 137 137 142 137 130 132 138 136 125 125 124 133 134 127 122 147 157 163 136 149 142
109 111 95 132 107 100 118 113 140 121 106 126 111 142 114 134 145 143 124 134 137 136 127 141 144 123 145 134 117 133 134 130 130 144 152 144 150 154 157 150 158 155 153
136 127 113 140 141 159 132 126 122 112 143 126 124 117 129 132 134 135 141 120 142 142 119 133 128 132 133 126 127 123 138 143 152 142 143 137 149 135 158 152 142 156 151
136 144 144 129 136 137 138 122 117 152 148 140 121 133 146 125 134 142 127 128 136 146 128 139 128 117 113 130 125 151 143 127 134 150 146 139 143 148 151 117 146 164 181
132 150 135 140 140 140 101 102 137 136 127 120 113 134 134 135 147 140 127 121 141 121 135 134 141 139 143 144 137 151 147 155 143 144 134 143 150 146 158 176 181 195 196
152 140 131 139 140 129 117 139 134 126 114 126 135 147 125 115 131 130 135 131 133 106 125 130 137 133 148 146 147 150 151 146 145 137 126 154 159 169 170 204 197 190 206
146 142 145 144 142 137 139 138 142 137 125 135 131 127 117 118 138 129 142 142 139 144 131 136 147 147 146 141 98 156 151 151 150 154 151 158 173 173 190 199 189 188 184
132 79 130 134 136 137 138 143 142 138 146 146 127 138 132 133 126 143 131 114 136 138 131 145 144 142 98 142 102 140 141 137 154 154 159 165 174 163 126 125 180 178 175
116 109 82 128 129 131 112 112 147 131 122 114 118 134 120 122 135 107 103 133 138 141 145 90 143 155 144 122 150 125 150 149 117 150 170 171 175 185 178 173 174 177 176
149 145 141 133 79 83 117 130 142 149 145 138 134 103 106 116 117 121 132 122 146 146 147 137 149 146 135 148 146 150 150 171 173 143 111 155 186 178 179 176 172 170 173
132 128 134 104 144 143 150 151 151 152 131 130 137 139 137 143 146 144 147 145 140 152 158 141 151 151 129 149 154 170 162 172 103 146 183 109 183 170 171 169 170 187 196
139 139 148 137 132 131 133 137 138 139 139 140 140 147 143 141 142 147 156 157 132 137 149 150 148 151 90 163 170 106 142 178 179 181 137 178 179 188 185 211 221 213 218
145 149 139 148 130 143 137 135 135 130 129 138 141 135 127 129 82 151 151 134 93 151 90 145 132 148 134 140 170 177 173 186 181 181 183 203 214 208 211 223 210 205 207
154 148 144 142 152 151 140 143 124 113 124 111 98 134 140 96 140 149 151 129 157 147 138 137 160 144 156 174 175 181 181 182 181 194 215 219 207 209 215 214 212 209 208
142 142 142 138 141 148 149 148 136 95 151 151 146 147 140 146 151 153 154 147 153 160 162 168 163 174 173 179 182 177 184 175 191 185 230 211 228 222 217 216 207 213 203
155 152 151 146 144 144 151 151 145 83 145 148 145 150 151 156 156 149 152 158 158 168 177 175 176 183 180 177 179 182 180 192 183 193 225 214 207 196 202 212 216 210 207
143 142 148 151 150 154 147 153 153 150 111 149 150 150 150 151 151 153 160 169 178 178 184 178 186 182 178 194 191 192 196 202 185 210 213 188 161 212 221 218 208 200 212
148 152 149 152 157 150 147 149 161 159 154 158 151 152 156 164 169 178 178 176 178 185 183 182 188 192 190 175 203 171 168 189 234 192 187 188 175 200 189 198 192 198 206
151 151 149 146 148 152 160 152 158 160 158 160 157 168 171 172 175 181 182 184 181 181 175 176 186 187 184 199 171 162 159 213 152 191 181 234 205 209 218 223 216 212 201
171 167 167 162 161 162 161 162 162 161 165 167 172 167 162 168 170 179 170 184 191 183 181 191 173 196 184 161 153 191 222 192 200 191 214 225 191 208 203 205 204 206 202
162 153 163 162 155 159 162 171 173 171 168 169 165 174 181 182 179 186 182 179 183 153 184 166 190 194 164 161 172 214 190 226 208 220 220 201 195 190 192 198 200 204 202
174 169 169 174 177 173 171 170 167 167 176 178 177 162 172 187 168 185 149 186 175 160 196 204 194 153 220 193 179 198 217 227 218 205 225 218 210 210 212 218 217 215 230
172 169 171 176 171 173 174 176 178 177 174 180 184 179 164 167 192 181 195 160 159 193 203 191 213 164 196 222 202 227 229 230 226 229 235 234 243 254 250 249 244 243 238
178 180 180 181 186 187 184 182 151 181 184 171 158 187 168 166 164 171 197 199 201 183 216 183 209 224 220 221 222 215 202 232 233 255 258 259 245 245 249 241 236 228 227

GFSSE_2pvu_pres_048.txt.gz
Presure
113 144 143 142 117 115 128 126 117 124 150 106 91 152 129 119 115 123 159 123 155 112 95 136 128 134 116 136 143 136 138 142 135 134 123 130 137 140 136 148 149 146 148
110 116 153 107 110 123 112 111 123 116 148 158 154 94 130 168 140 137 139 147 143 138 133 133 138 122 135 148 131 140 150 137 129 121 122 125 127 133 132 156 128 134 152
125 96 109 128 131 129 129 125 144 156 132 125 127 168 139 131 134 144 144 132 127 143 128 140 133 146 131 130 146 132 138 145 132 134 140 152 149 156 135 143 146 120 139
98 95 112 96 146 164 153 112 112 105 109 111 138 114 126 115 147 126 136 132 135 121 150 142 136 124 143 137 124 137 133 127 129 122 123 134 142 143 140 140 155 158 157
129 97 107 129 137 126 130 113 106 130 106 122 109 139 106 115 147 133 117 144 145 143 125 128 144 140 128 143 135 124 121 143 149 145 151 152 150 150 151 146 156 138 168
127 137 135 106 117 103 116 141 108 110 110 127 113 152 119 140 108 135 141 122 146 126 122 136 139 125 138 117 124 138 149 150 142 161 149 144 147 120 162 156 146 162 176
131 148 139 127 128 122 120 135 136 134 133 105 141 104 134 123 134 132 132 130 129 124 126 144 140 141 127 134 128 142 145 145 153 147 145 148 145 140 153 176 165 181 176
142 143 141 143 141 152 144 130 134 145 94 121 132 133 131 145 132 136 130 128 131 128 116 117 132 146 110 129 137 144 145 152 144 144 147 150 153 164 176 181 181 173 183
143 144 140 145 135 158 145 137 139 135 118 115 139 135 130 113 112 120 129 124 123 130 132 121 118 128 132 144 149 139 135 155 156 148 139 140 174 167 177 179 182 183 187
133 135 142 149 149 139 137 137 150 149 140 130 141 140 139 140 146 137 135 129 145 141 124 92 110 139 152 143 100 108 148 149 141 150 154 174 169 179 178 189 110 185 190
146 135 133 127 150 145 134 137 142 142 135 130 133 136 143 111 120 113 125 129 113 124 137 137 142 142 143 158 147 157 141 154 133 164 176 102 150 168 162 183 186 201 221
127 114 78 135 101 113 107 105 104 132 135 133 141 144 126 112 122 94 114 139 144 144 146 142 148 149 154 139 153 156 147 156 125 116 141 106 104 174 191 136 150 230 222
142 136 142 139 127 131 127 82 106 126 132 141 127 124 113 139 143 140 140 141 145 137 136 145 137 153 141 156 151 163 148 164 169 174 173 161 179 192 183 208 186 237 214
146 146 148 140 127 124 122 144 133 138 147 125 131 132 140 137 139 135 138 151 136 136 140 85 151 155 155 115 82 153 167 88 97 177 183 195 197 190 203 199 197 230 218
142 113 140 128 130 141 146 132 137 147 141 137 139 141 140 141 145 149 141 140 83 110 153 156 153 156 152 156 158 179 173 175 174 176 176 191 189 197 197 241 224 221 205
146 142 140 139 99 136 135 134 141 146 115 149 151 148 139 141 136 81 146 151 154 78 151 159 149 151 159 78 181 177 169 180 170 183 186 197 192 184 232 236 216 184 190
145 145 145 146 146 146 140 143 145 143 140 144 144 84 83 148 149 144 148 148 153 146 157 151 158 168 175 179 180 174 187 177 181 187 194 204 187 183 164 218 185 178 193
152 149 146 150 143 142 149 145 142 143 144 147 141 95 88 148 150 152 156 152 152 154 155 161 169 172 176 178 173 192 179 177 182 190 192 182 182 200 182 213 154 194 188
145 149 150 151 151 147 151 152 153 152 152 153 145 148 146 151 149 147 150 153 166 160 156 167 166 181 178 179 178 185 185 174 182 192 178 192 152 198 167 200 191 234 227
153 141 142 143 145 149 143 147 147 149 152 145 150 151 158 157 159 154 156 163 158 159 166 176 181 171 177 168 165 189 175 157 174 166 173 190 204 215 222 195 218 224 223
157 154 156 154 152 150 151 153 155 153 152 153 148 149 150 152 161 164 158 157 168 177 162 182 168 154 165 182 186 177 168 162 202 226 186 203 215 219 202 227 225 222 212
165 155 158 159 153 152 150 149 145 147 153 159 161 161 162 156 160 153 175 173 167 184 170 174 158 176 185 178 191 161 201 210 226 227 235 234 223 220 226 225 219 197 224
165 168 167 161 160 159 160 160 159 159 157 156 160 150 161 154 168 163 146 173 172 144 174 170 168 188 172 153 199 194 199 188 181 239 221 219 225 220 210 220 226 231 230
162 169 160 160 165 166 166 164 169 164 162 161 167 173 172 176 167 176 173 165 135 167 161 162 191 159 186 200 187 186 189 225 248 216 229 234 225 227 236 246 249 255 251
174 172 168 167 165 164 168 175 167 175 162 161 167 173 168 145 180 190 187 164 190 191 156 184 189 185 178 197 192 205 238 239 216 235 226 211 238 259 277 269 235 260 253
179 172 166 166 169 169 166 165 165 168 168 169 175 176 157 179 153 178 181 194 180 179 188 180 188 176 209 218 252 229 234 231 233 219 243 263 259 240 254 280 251 253 243